Princeton, MN

6:16 PM CST on November 20, 2019 (GMT -0600)
Princeton Municipal

Weather History for KPNM - September, 2019

Change the Weather History Date:

Saturday, September 14, 2019

  Actual Average Record
Temperature  
Mean Temperature 56 °F -  
Max Temperature 69 °F 71 °F 89 °F (2017)
Min Temperature 44 °F 48 °F 37 °F (2007)
Degree Days  
Heating Degree Days 8    
Growing Degree Days 6 (Base 50)    
Moisture  
Dew Point 54 °F    
Average Humidity 88    
Maximum Humidity 100    
Minimum Humidity 60    
Precipitation  
Precipitation 0.00 in - - ()
Sea Level Pressure  
Sea Level Pressure 30.03 in    
Wind  
Wind Speed 2 mph (East)    
Max Wind Speed 10 mph    
Max Gust Speed -    
Visibility 8 miles    
Events Fog , Rain , Thunderstorm    
Averages and records for this station are not official NWS values.
T = Trace of Precipitation, MM = Missing Value Source: NWS Daily Summary

Daily Weather History Graph

Daily Weather History Graph

Search for Another Location

Airport or City:

Astronomy

Sep. 14, 2019 Rise Set
Actual Time 6:51 AM CDT 7:27 PM CDT
Civil Twilight 6:21 AM CDT 7:57 PM CDT
Nautical Twilight 5:46 AM CDT 8:32 PM CDT
Astronomical Twilight 5:09 AM CDT 9:09 PM CDT
Moon 8:09 PM CDT (9/14) 7:03 AM CDT (9/14)
Length of Visible Light 13h 36m
Length of Day
12h 36m
Full, 100% of the Moon is Illuminated
Sep 14
Full
Sep 21
Last Quarter
Sep 28
New
Oct 5
First Quarter
Oct 13
Full

Hourly Weather History & Observations

Time (CDT) Temp. Dew Point Humidity Pressure Visibility Wind Dir Wind Speed Gust Speed Precip Events Conditions
12:18 AM 51.8 °F 48.2 °F 88% 30.06 in 10.0 mi Calm Calm - N/A   Clear
12:55 AM 51.8 °F 48.2 °F 88% 30.07 in 10.0 mi Calm Calm - N/A   Clear
12:56 AM 51.8 °F 48.2 °F 88% 30.07 in 10.0 mi Calm Calm - N/A   Clear
1:15 AM 50.0 °F 48.2 °F 94% 30.07 in 10.0 mi Calm Calm - N/A   Clear
1:16 AM 50.0 °F 48.2 °F 94% 30.06 in 10.0 mi Calm Calm - N/A   Clear
1:39 AM 48.2 °F 46.4 °F 93% 30.07 in 10.0 mi Calm Calm - N/A   Clear
1:57 AM 48.2 °F 46.4 °F 93% 30.07 in 4.0 mi Calm Calm - N/A   Clear
2:15 AM 46.4 °F 44.6 °F 93% 30.07 in 1.0 mi Calm Calm - N/A   Clear
2:16 AM 46.4 °F 44.6 °F 93% 30.07 in 1.2 mi Calm Calm - N/A   Clear
2:35 AM 46.4 °F 46.4 °F 100% 30.07 in 1.5 mi Calm Calm - N/A   Clear
2:36 AM 46.4 °F 44.6 °F 93% 30.07 in 1.2 mi Calm Calm - N/A   Clear
2:55 AM 46.4 °F 46.4 °F 100% 30.07 in 4.0 mi Calm Calm - N/A   Clear
3:18 AM 48.2 °F 48.2 °F 100% 30.07 in 7.0 mi Calm Calm - N/A   Clear
3:36 AM 48.2 °F 48.2 °F 100% 30.08 in 10.0 mi Calm Calm - N/A   Clear
3:55 AM 48.2 °F 48.2 °F 100% 30.08 in 5.0 mi Calm Calm - N/A   Clear
3:56 AM 48.2 °F 48.2 °F 100% 30.08 in 4.0 mi Calm Calm - N/A   Clear
4:15 AM 46.4 °F 46.4 °F 100% 30.08 in 0.5 mi Calm Calm - N/A Fog Fog
4:39 AM 46.4 °F 44.6 °F 93% 30.09 in 0.5 mi Calm Calm - N/A Fog Fog
4:57 AM 44.6 °F 42.8 °F 93% 30.09 in 0.2 mi Calm Calm - N/A Fog Fog
5:15 AM 46.4 °F 44.6 °F 93% 30.09 in 0.5 mi Calm Calm - N/A Fog Fog
5:35 AM 44.6 °F 44.6 °F 100% 30.09 in 0.5 mi Calm Calm - N/A Fog Fog
5:36 AM 46.4 °F 44.6 °F 93% 30.09 in 0.5 mi Calm Calm - N/A Fog Fog
5:55 AM 46.4 °F 44.6 °F 93% 30.09 in 0.5 mi Calm Calm - N/A Fog Fog
6:00 AM 46.4 °F 44.6 °F 93% 30.09 in 0.5 mi Calm Calm - N/A Fog Fog
6:18 AM 46.4 °F 44.6 °F 93% 30.10 in 1.5 mi Calm Calm - N/A   Clear
6:36 AM 48.2 °F 46.4 °F 93% 30.10 in 5.0 mi Calm Calm - N/A   Clear
6:55 AM 46.4 °F 44.6 °F 93% 30.10 in 0.2 mi Calm Calm - N/A Fog Fog
7:15 AM 44.6 °F 44.6 °F 100% 30.10 in 0.2 mi Calm Calm - N/A Fog Fog
7:16 AM 44.6 °F 44.6 °F 100% 30.10 in 0.2 mi Calm Calm - N/A Fog Fog
7:39 AM 48.2 °F 46.4 °F 93% 30.09 in 1.0 mi Calm Calm - N/A   Clear
7:57 AM 48.2 °F 48.2 °F 100% 30.09 in 4.0 mi Calm Calm - N/A   Clear
8:15 AM 51.8 °F 50.0 °F 94% 30.08 in 10.0 mi Calm Calm - N/A   Clear
8:35 AM 53.6 °F 51.8 °F 94% 30.08 in 10.0 mi Calm Calm - N/A   Clear
8:36 AM 53.6 °F 51.8 °F 94% 30.08 in 10.0 mi Calm Calm - N/A   Clear
8:55 AM 53.6 °F 53.6 °F 100% 30.09 in 10.0 mi Calm Calm - N/A   Clear
9:17 AM 55.4 °F 55.4 °F 100% 30.09 in 10.0 mi Calm Calm - N/A   Clear
9:35 AM 59.0 °F 57.2 °F 94% 30.09 in 10.0 mi SSE 3.5 mph - N/A   Clear
9:55 AM 60.8 °F 55.4 °F 82% 30.09 in 10.0 mi SE 4.6 mph - N/A   Scattered Clouds
9:56 AM 60.8 °F 55.4 °F 82% 30.09 in 10.0 mi SE 5.8 mph - N/A   Scattered Clouds
10:15 AM 62.6 °F 55.4 °F 77% 30.09 in 10.0 mi SSE 8.1 mph - N/A   Scattered Clouds
10:20 AM 64.4 °F 55.4 °F 73% 30.09 in 10.0 mi SSE 8.1 mph - N/A   Scattered Clouds
10:38 AM 64.4 °F 53.6 °F 68% 30.09 in 10.0 mi SE 6.9 mph - N/A   Clear
10:56 AM 64.4 °F 53.6 °F 68% 30.09 in 10.0 mi ESE 6.9 mph - N/A   Clear
11:15 AM 66.2 °F 53.6 °F 64% 30.07 in 10.0 mi ESE 6.9 mph - N/A   Clear
11:16 AM 66.2 °F 53.6 °F 64% 30.07 in 10.0 mi ESE 9.2 mph - N/A   Clear
11:35 AM 66.2 °F 55.4 °F 68% 30.07 in 10.0 mi East 8.1 mph - N/A   Clear
11:36 AM 66.2 °F 55.4 °F 68% 30.07 in 10.0 mi ESE 6.9 mph - N/A   Clear
11:59 AM 68.0 °F 55.4 °F 64% 30.05 in 10.0 mi East 5.8 mph - N/A   Clear
12:17 PM 69.8 °F 55.4 °F 60% 30.05 in 10.0 mi East 6.9 mph - N/A   Clear
12:35 PM 69.8 °F 57.2 °F 64% 30.05 in 10.0 mi ESE 8.1 mph - N/A Thunderstorm Clear
12:55 PM 68.0 °F 57.2 °F 68% 30.05 in 10.0 mi ESE 5.8 mph - N/A   Scattered Clouds
1:15 PM 66.2 °F 57.2 °F 73% 30.04 in 10.0 mi ESE 6.9 mph - N/A   Scattered Clouds
1:20 PM 66.2 °F 57.2 °F 73% 30.04 in 10.0 mi ESE 6.9 mph - N/A   Scattered Clouds
1:38 PM 66.2 °F 57.2 °F 73% 30.02 in 10.0 mi East 9.2 mph - N/A Thunderstorm Thunderstorm
1:56 PM 66.2 °F 57.2 °F 73% 30.02 in 10.0 mi ESE 9.2 mph - N/A Rain , Thunderstorm Light Thunderstorms and Rain
2:15 PM 64.4 °F 60.8 °F 88% 29.99 in 5.0 mi East 10.4 mph - N/A   Mostly Cloudy
2:35 PM 64.4 °F 60.8 °F 88% 29.99 in 10.0 mi East 9.2 mph - N/A Thunderstorm Scattered Clouds
2:36 PM 64.4 °F 62.6 °F 94% 29.99 in 10.0 mi ESE 9.2 mph - N/A Thunderstorm Scattered Clouds
2:59 PM 64.4 °F 60.8 °F 88% 30.00 in 10.0 mi East 6.9 mph - N/A Thunderstorm Mostly Cloudy
3:17 PM 66.2 °F 60.8 °F 83% 29.98 in 10.0 mi East 5.8 mph - N/A   Mostly Cloudy
3:37 PM - - N/A% 29.98 in - East 8.1 mph - N/A   Unknown
3:55 PM 66.2 °F 60.8 °F 83% 29.98 in 10.0 mi East 6.9 mph - N/A   Scattered Clouds
4:15 PM 68.0 °F 60.8 °F 78% 29.98 in 10.0 mi ENE 6.9 mph - N/A   Mostly Cloudy
4:20 PM 66.2 °F 60.8 °F 83% 29.98 in 10.0 mi East 6.9 mph - N/A   Mostly Cloudy
4:38 PM 66.2 °F 60.8 °F 83% 29.98 in 10.0 mi ENE 8.1 mph - N/A   Overcast
4:56 PM 66.2 °F 60.8 °F 83% 29.98 in 10.0 mi East 4.6 mph - N/A   Overcast
5:15 PM 66.2 °F 60.8 °F 83% 29.98 in 10.0 mi East 5.8 mph - N/A   Overcast
5:36 PM 66.2 °F 60.8 °F 83% 29.97 in 10.0 mi East 4.6 mph - N/A   Overcast
5:59 PM 68.0 °F 62.6 °F 83% 29.96 in 10.0 mi East 5.8 mph - N/A   Overcast
6:17 PM 66.2 °F 60.8 °F 83% 29.96 in 10.0 mi ENE 6.9 mph - N/A   Scattered Clouds
6:35 PM 66.2 °F 60.8 °F 83% 29.97 in 10.0 mi ENE 5.8 mph - N/A   Mostly Cloudy
6:55 PM 66.2 °F 60.8 °F 83% 29.97 in 10.0 mi ENE 3.5 mph - N/A   Overcast
6:56 PM 66.2 °F 60.8 °F 83% 29.97 in 10.0 mi ENE 4.6 mph - N/A   Overcast
7:15 PM 64.4 °F 60.8 °F 88% 29.96 in 10.0 mi ENE 4.6 mph - N/A   Mostly Cloudy
7:20 PM 64.4 °F 60.8 °F 88% 29.96 in 10.0 mi ENE 4.6 mph - N/A   Scattered Clouds
7:38 PM 62.6 °F 60.8 °F 94% 29.96 in 10.0 mi East 5.8 mph - N/A   Clear
7:56 PM 62.6 °F 60.8 °F 94% 29.96 in 10.0 mi East 4.6 mph - N/A   Clear
8:16 PM 62.6 °F 60.8 °F 94% 29.96 in 10.0 mi East 4.6 mph - N/A   Clear
8:35 PM 62.6 °F 60.8 °F 94% 29.95 in 10.0 mi East 3.5 mph - N/A   Clear
8:36 PM 62.6 °F 60.8 °F 94% 29.95 in 10.0 mi East 3.5 mph - N/A   Clear
8:59 PM 62.6 °F 60.8 °F 94% 29.96 in 10.0 mi Calm Calm - N/A   Clear
9:17 PM 62.6 °F 60.8 °F 94% 29.95 in 10.0 mi ESE 4.6 mph - N/A   Clear
9:35 PM 62.6 °F 60.8 °F 94% 29.96 in 10.0 mi ESE 4.6 mph - N/A   Clear
9:55 PM 62.6 °F 60.8 °F 94% 29.96 in 10.0 mi ESE 3.5 mph - N/A   Clear
10:15 PM 62.6 °F 60.8 °F 94% 29.97 in 10.0 mi ESE 3.5 mph - N/A   Clear
10:19 PM 62.6 °F 60.8 °F 94% 29.97 in 10.0 mi Calm Calm - N/A   Clear
10:38 PM 60.8 °F 60.8 °F 100% 29.97 in 10.0 mi Calm Calm - N/A   Clear
11:15 PM 60.8 °F 59.0 °F 94% 29.97 in 10.0 mi Calm Calm - N/A   Clear
11:35 PM 60.8 °F 59.0 °F 94% 29.96 in 10.0 mi Calm Calm - N/A   Clear
11:36 PM 60.8 °F 59.0 °F 94% 29.96 in 10.0 mi Calm Calm - N/A   Clear
11:58 PM 60.8 °F 59.0 °F 94% 29.96 in 10.0 mi Calm Calm - N/A   Clear